GW2942 Weather Reports


Display with metric or nautical units.
time (UTC)temp
F
wind
direction
speed
MPH
gust
MPH
rain 1hr
in
rain 24hr
in
rain mn
in
humidity
%
barometer
mb
20260906153032 72 144 0.0 4.0 0.00 0.00 0.00 88 1020.7
20260906152519 71 81 1.0 2.0 0.00 0.00 0.00 89 1020.7
20260906152012 71 101 0.0 2.0 0.00 0.00 0.00 89 1020.6
20260906151517 71 137 1.0 3.0 0.00 0.00 0.00 89 1020.6
20260906151011 71 132 0.0 4.0 0.00 0.00 0.00 90 1020.7
20260906150513 71 132 0.0 4.0 0.00 0.00 0.00 90 1020.6
20260906150023 70 99 0.0 2.0 0.00 0.00 0.00 90 1020.4
20260906145512 70 121 0.0 0.0 0.00 0.00 0.00 91 1020.6
20260906145016 70 98 0.0 0.0 0.00 0.00 0.00 91 1020.7
20260906144531 70 129 0.0 4.0 0.00 0.00 0.00 91 1020.5
20260906144014 70 184 0.0 4.0 0.00 0.00 0.00 91 1020.4
20260906143514 70 133 0.0 0.0 0.00 0.00 0.00 91 1020.4
20260906143029 69 133 0.0 0.0 0.00 0.00 0.00 91 1020.3
20260906142520 69 134 0.0 2.0 0.00 0.00 0.00 91 1020.2
20260906142018 69 82 0.0 2.0 0.00 0.00 0.00 91 1020.3
20260906141532 69 99 0.0 4.0 0.00 0.00 0.00 91 1020.2
20260906141013 69 150 0.0 4.0 0.00 0.00 0.00 91 1020.1
20260906140511 69 115 1.0 4.0 0.00 0.00 0.00 91 1020.1
20260906140031 69 19 0.0 2.0 0.00 0.00 0.00 91 1020.0
20260906135514 69 103 0.0 3.0 0.00 0.00 0.00 91 1020.1
20260906135005 69 228 1.0 3.0 0.00 0.00 0.00 91 1020.2
20260906134504 69 70 1.0 3.0 0.00 0.00 0.00 91 1020.2
20260906134004 69 91 2.0 4.0 0.00 0.00 0.00 91 1020.3
20260906133505 69 48 1.0 4.0 0.00 0.00 0.00 91 1020.1
20260906133013 69 109 1.0 3.0 0.00 0.00 0.00 92 1020.1
20260906132508 69 33 2.0 4.0 0.00 0.00 0.00 92 1020.1
20260906132007 69 96 0.0 4.0 0.00 0.00 0.00 92 1020.0
20260906131512 69 98 2.0 4.0 0.00 0.00 0.00 92 1019.9
20260906131009 69 18 1.0 3.0 0.00 0.00 0.00 92 1019.8
20260906130512 69 59 1.0 4.0 0.00 0.00 0.00 92 1019.7
20260906130031 69 49 1.0 4.0 0.00 0.00 0.00 92 1019.7
20260906125513 69 68 0.0 3.0 0.00 0.00 0.00 93 1019.6
20260906125016 68 73 1.0 2.0 0.00 0.00 0.00 93 1019.5
20260906124526 68 71 0.0 3.0 0.00 0.00 0.00 93 1019.3
20260906124016 68 88 0.0 3.0 0.00 0.00 0.00 93 1019.3
20260906123502 68 61 0.0 2.0 0.00 0.00 0.00 93 1019.2
20260906123007 68 59 0.0 1.0 0.00 0.00 0.00 93 1019.3
20260906122505 68 34 0.0 0.0 0.00 0.00 0.00 92 1019.3
20260906122006 68 63 0.0 2.0 0.00 0.00 0.00 92 1019.2
20260906121509 68 55 0.0 2.0 0.00 0.00 0.00 92 1019.3
20260906121009 69 65 0.0 2.0 0.00 0.00 0.00 92 1019.2
20260906120510 69 35 0.0 0.0 0.00 0.00 0.00 92 1019.2
20260906120018 69 57 0.0 0.0 0.00 0.00 0.00 92 1019.2
20260906115511 69 62 0.0 0.0 0.00 0.00 0.00 92 1019.2
20260906115014 69 52 0.0 0.0 0.00 0.00 0.00 92 1019.1
20260906114525 69 63 0.0 0.0 0.00 0.00 0.00 92 1019.1
20260906114014 69 27 0.0 3.0 0.00 0.00 0.00 92 1019.0
20260906113515 69 19 0.0 3.0 0.00 0.00 0.00 92 1019.1
20260906113033 69 59 0.0 0.0 0.00 0.00 0.00 92 1019.2
20260906112506 69 63 0.0 1.0 0.00 0.00 0.00 92 1019.2
20260906112003 69 20 0.0 1.0 0.00 0.00 0.00 92 1019.1
20260906111509 69 28 0.0 2.0 0.00 0.00 0.00 92 1018.9
20260906111008 69 75 0.0 2.0 0.00 0.00 0.00 92 1018.7
20260906110508 69 67 0.0 2.0 0.00 0.00 0.00 92 1018.6
20260906110016 69 69 0.0 0.0 0.00 0.00 0.00 92 1018.8
20260906105511 69 60 0.0 2.0 0.00 0.00 0.00 92 1018.6
20260906105012 69 67 0.0 2.0 0.00 0.00 0.00 92 1018.5
20260906104534 69 64 0.0 0.0 0.00 0.00 0.00 92 1018.6
20260906104011 69 57 0.0 2.0 0.00 0.00 0.00 92 1018.6
20260906103515 69 33 0.0 2.0 0.00 0.00 0.00 92 1018.5
20260906103041 69 65 0.0 2.0 0.00 0.00 0.00 92 1018.4
20260906102516 69 61 1.0 2.0 0.00 0.00 0.00 92 1018.4
20260906102018 69 51 0.0 1.0 0.00 0.00 0.00 92 1018.3
20260906101529 69 62 0.0 0.0 0.00 0.00 0.00 92 1018.2
20260906101006 69 67 0.0 3.0 0.00 0.00 0.00 92 1018.2
20260906100506 70 57 0.0 3.0 0.00 0.00 0.00 92 1018.3
20260906100024 70 38 1.0 3.0 0.00 0.00 0.00 92 1018.1
20260906095509 70 138 0.0 2.0 0.00 0.00 0.00 92 1018.1
20260906095016 70 63 1.0 2.0 0.00 0.00 0.00 91 1017.9
20260906094519 70 56 0.0 4.0 0.00 0.00 0.00 91 1017.9
20260906094015 70 52 1.0 5.0 0.00 0.00 0.00 91 1017.9
20260906093512 70 69 0.0 5.0 0.00 0.00 0.00 91 1017.8
20260906093035 70 50 1.0 3.0 0.00 0.00 0.00 91 1017.7
20260906092512 70 25 0.0 3.0 0.00 0.00 0.00 91 1017.7
20260906092016 70 101 1.0 3.0 0.00 0.00 0.00 91 1017.6
20260906091536 71 61 0.0 3.0 0.00 0.00 0.00 91 1017.4
20260906091016 71 45 1.0 3.0 0.00 0.00 0.00 91 1017.5
20260906090519 71 63 1.0 3.0 0.00 0.00 0.00 91 1017.5
20260906090033 71 66 0.0 3.0 0.00 0.00 0.00 91 1017.5
20260906085510 71 54 0.0 3.0 0.00 0.00 0.00 91 1017.6
20260906085007 71 86 1.0 3.0 0.00 0.00 0.00 91 1017.5
20260906084517 71 55 1.0 3.0 0.00 0.00 0.00 90 1017.6
20260906084011 71 48 0.0 2.0 0.00 0.00 0.00 90 1017.8
20260906083513 72 35 1.0 3.0 0.00 0.00 0.00 90 1017.7
20260906083023 72 82 1.0 3.0 0.00 0.00 0.00 90 1017.6
20260906082513 72 51 0.0 2.0 0.00 0.00 0.00 90 1017.6
20260906082014 72 66 0.0 3.0 0.00 0.00 0.00 90 1017.5
20260906081526 72 54 2.0 3.0 0.00 0.00 0.00 90 1017.7
20260906081016 72 42 1.0 2.0 0.00 0.00 0.00 90 1017.6
20260906080516 72 98 0.0 3.0 0.00 0.00 0.00 90 1017.6
20260906080031 72 73 1.0 3.0 0.00 0.00 0.00 90 1017.6
20260906075518 72 24 1.0 3.0 0.00 0.00 0.00 90 1017.7
20260906075018 72 34 1.0 3.0 0.00 0.00 0.00 90 1017.7
20260906074513 73 67 1.0 3.0 0.00 0.00 0.00 89 1017.6
20260906074010 73 58 1.0 3.0 0.00 0.00 0.00 89 1017.7
20260906073509 73 51 1.0 3.0 0.00 0.00 0.00 89 1017.6
20260906073023 73 51 0.0 4.0 0.00 0.00 0.00 89 1017.7
20260906072512 73 83 1.0 4.0 0.00 0.00 0.00 89 1017.8
20260906072013 73 60 1.0 5.0 0.00 0.00 0.00 89 1018.0
20260906071528 73 46 2.0 5.0 0.00 0.00 0.00 88 1017.8
20260906071016 73 132 1.0 3.0 0.00 0.00 0.00 88 1017.8
20260906070517 73 76 1.0 2.0 0.00 0.00 0.00 88 1017.9
20260906070031 73 68 0.0 3.0 0.00 0.00 0.00 88 1018.0
20260906065516 73 73 1.0 3.0 0.00 0.00 0.00 88 1018.0
20260906065020 73 46 1.0 3.0 0.00 0.00 0.00 88 1018.0
20260906064530 74 71 1.0 3.0 0.00 0.00 0.00 87 1017.9
20260906064023 74 69 1.0 2.0 0.00 0.00 0.00 87 1017.9
20260906063517 74 32 1.0 2.0 0.00 0.00 0.00 87 1017.8
20260906063024 74 80 0.0 3.0 0.00 0.00 0.00 87 1018.1
20260906062511 74 30 1.0 3.0 0.00 0.00 0.00 87 1018.1
20260906062013 74 57 1.0 5.0 0.00 0.00 0.00 87 1018.0
20260906061523 74 18 1.0 5.0 0.00 0.00 0.00 87 1018.1
20260906061013 74 57 2.0 5.0 0.00 0.00 0.00 86 1018.0
20260906060515 74 67 1.0 3.0 0.00 0.00 0.00 86 1017.9
20260906060028 74 74 1.0 3.0 0.00 0.00 0.00 86 1018.1
20260906055517 74 67 1.0 4.0 0.00 0.00 0.00 86 1018.1
20260906055016 74 61 1.0 4.0 0.00 0.00 0.00 86 1018.1
20260906054549 74 55 1.0 4.0 0.00 0.00 0.00 86 1017.9
20260906054017 74 53 1.0 3.0 0.00 0.00 0.00 86 1017.8
20260906053517 75 78 1.0 2.0 0.00 0.00 0.00 85 1017.7
20260906053032 75 34 0.0 2.0 0.00 0.00 0.00 86 1017.8
20260906052518 75 51 0.0 3.0 0.00 0.00 0.00 86 1018.0
20260906052017 75 51 1.0 4.0 0.00 0.00 0.00 85 1017.9
20260906051529 75 76 1.0 4.0 0.00 0.00 0.00 85 1017.8
20260906051003 75 27 1.0 2.0 0.00 0.00 0.00 85 1017.8
20260906050503 75 61 1.0 4.0 0.00 0.00 0.00 85 1017.7
20260906050004 75 56 1.0 4.0 0.00 0.00 0.00 85 1017.7
20260906045505 75 64 1.0 2.0 0.00 0.00 0.00 85 1017.6
20260906045003 75 65 0.0 3.0 0.00 0.00 0.00 85 1017.5
20260906044503 75 51 1.0 3.0 0.00 0.00 0.00 85 1017.4
20260906044003 75 46 1.0 3.0 0.00 0.00 0.00 85 1017.6
20260906043505 75 69 1.0 3.0 0.00 0.00 0.00 85 1017.4
20260906043005 75 87 1.0 3.0 0.00 0.00 0.00 85 1017.4
20260906042503 75 13 1.0 2.0 0.00 0.00 0.00 85 1017.4
20260906042004 75 65 1.0 2.0 0.00 0.00 0.00 84 1017.4
20260906041504 75 30 1.0 2.0 0.00 0.00 0.00 84 1017.4
20260906041005 75 64 1.0 2.0 0.00 0.00 0.00 84 1017.4
20260906040507 76 58 0.0 3.0 0.00 0.00 0.00 84 1017.5
20260906040004 76 37 1.0 3.0 0.00 0.00 0.00 84 1017.4
20260906035503 76 68 1.0 2.0 0.00 0.00 0.00 84 1017.4
20260906035005 76 59 1.0 3.0 0.00 0.00 0.00 84 1017.4
20260906034503 76 40 1.0 3.0 0.00 0.00 0.00 84 1017.3
20260906034004 76 55 1.0 2.0 0.00 0.00 0.00 84 1017.2
20260906033504 76 78 0.0 2.0 0.00 0.00 0.00 84 1017.1
20260906033004 76 22 0.0 2.0 0.00 0.00 0.00 84 1017.1
20260906032503 76 65 1.0 2.0 0.00 0.00 0.00 84 1017.0
20260906032004 76 57 1.0 3.0 0.00 0.00 0.00 84 1017.0
20260906031511 76 49 1.0 5.0 0.00 0.00 0.00 84 1016.9
20260906031007 76 55 2.0 5.0 0.00 0.00 0.00 84 1016.9
20260906030504 76 53 2.0 3.0 0.00 0.00 0.00 84 1016.8
20260906030010 76 9 1.0 2.0 0.00 0.00 0.00 84 1016.9
20260906025505 76 54 0.0 2.0 0.00 0.00 0.00 84 1016.8
20260906025010 76 69 1.0 2.0 0.00 0.00 0.00 84 1016.9
20260906024519 76 22 0.0 2.0 0.00 0.00 0.00 84 1016.8
20260906024005 76 61 0.0 2.0 0.00 0.00 0.00 84 1016.7
20260906023505 76 53 0.0 2.0 0.00 0.00 0.00 84 1016.6
20260906023007 77 99 1.0 3.0 0.00 0.00 0.00 84 1016.6
20260906022505 77 61 1.0 4.0 0.00 0.00 0.00 84 1016.6
20260906022006 77 34 1.0 4.0 0.00 0.00 0.00 84 1016.5
20260906021507 77 52 1.0 4.0 0.00 0.00 0.00 84 1016.4
20260906021005 77 67 1.0 4.0 0.00 0.00 0.00 83 1016.3
20260906020505 78 115 1.0 3.0 0.00 0.00 0.00 83 1016.1
20260906020006 78 34 1.0 3.0 0.00 0.00 0.00 83 1016.0
20260906015506 78 55 1.0 3.0 0.00 0.00 0.00 82 1015.9
20260906015004 78 40 1.0 3.0 0.00 0.00 0.00 82 1015.9
20260906014510 78 78 1.0 5.0 0.00 0.00 0.00 82 1015.8
20260906014005 78 52 2.0 5.0 0.00 0.00 0.00 81 1015.9
20260906013506 79 61 1.0 4.0 0.00 0.00 0.00 81 1015.8
20260906013008 79 42 1.0 4.0 0.00 0.00 0.00 81 1015.8
20260906012509 79 66 2.0 4.0 0.00 0.00 0.00 81 1015.8
20260906012006 79 81 2.0 4.0 0.00 0.00 0.00 80 1015.8
20260906011508 79 63 0.0 2.0 0.00 0.00 0.00 81 1015.7
20260906011005 79 63 0.0 1.0 0.00 0.00 0.00 81 1015.7
20260906010505 79 44 0.0 3.0 0.00 0.00 0.00 80 1015.8
20260906010024 79 20 1.0 3.0 0.00 0.00 0.00 80 1015.7
20260906005506 80 65 1.0 3.0 0.00 0.00 0.00 80 1015.6
20260906005006 80 60 1.0 2.0 0.00 0.00 0.00 80 1015.7
20260906004507 80 69 1.0 2.0 0.00 0.00 0.00 80 1015.6
20260906004006 80 61 1.0 3.0 0.00 0.00 0.00 80 1015.5
20260906003506 80 88 0.0 3.0 0.00 0.00 0.00 79 1015.6
20260906003006 80 79 1.0 4.0 0.00 0.00 0.00 79 1015.6
20260906002505 81 65 1.0 4.0 0.00 0.00 0.00 78 1015.6
20260906002008 81 59 1.0 3.0 0.00 0.00 0.00 78 1015.6
20260906001509 81 71 1.0 4.0 0.00 0.00 0.00 78 1015.6
20260906001007 81 23 2.0 6.0 0.00 0.00 0.00 78 1015.6
20260906000507 81 48 1.0 6.0 0.00 0.00 0.00 78 1015.5
20260906000016 82 78 2.0 6.0 0.00 0.00 0.00 78 1015.5
20260905235509 82 59 3.0 6.0 0.00 0.00 0.00 78 1015.5
20260905235003 83 342 2.0 6.0 0.00 0.00 0.00 78 1015.4
20260905234508 83 63 2.0 6.0 0.00 0.00 0.00 78 1015.3
20260905234009 84 65 3.0 6.0 0.00 0.00 0.00 78 1015.3
20260905233507 84 48 3.0 8.0 0.00 0.00 0.00 77 1015.3
20260905233011 84 41 3.0 8.0 0.00 0.00 0.00 76 1015.3
20260905232507 85 65 2.0 8.0 0.00 0.00 0.00 76 1015.3
20260905232008 85 342 1.0 6.0 0.00 0.00 0.00 76 1015.2
20260905231510 86 59 3.0 5.0 0.00 0.00 0.00 75 1015.2
20260905231005 86 71 1.0 6.0 0.00 0.00 0.00 75 1015.2
20260905230507 87 86 3.0 6.0 0.00 0.00 0.00 75 1015.1
20260905230022 87 69 3.0 10.0 0.00 0.00 0.00 74 1015.0
20260905225508 88 73 3.0 10.0 0.00 0.00 0.00 74 1014.9
20260905225009 88 43 3.0 7.0 0.00 0.00 0.00 73 1014.8
20260905224518 89 62 2.0 9.0 0.00 0.00 0.00 72 1014.7
20260905224007 89 28 3.0 9.0 0.00 0.00 0.00 71 1014.7
20260905223510 89 59 2.0 7.0 0.00 0.00 0.00 69 1014.5
20260905223016 90 84 2.0 7.0 0.00 0.00 0.00 67 1014.6
20260905222511 90 138 2.0 5.0 0.00 0.00 0.00 68 1014.5
20260905222009 90 78 3.0 6.0 0.00 0.00 0.00 67 1014.5
20260905221511 90 61 2.0 6.0 0.00 0.00 0.00 67 1014.5
20260905221006 90 50 1.0 8.0 0.00 0.00 0.00 67 1014.5
20260905220505 90 65 3.0 8.0 0.00 0.00 0.00 65 1014.5
20260905220007 90 40 2.0 6.0 0.00 0.00 0.00 67 1014.5
20260905215507 90 46 2.0 7.0 0.00 0.00 0.00 67 1014.6
20260905215008 90 65 3.0 7.0 0.00 0.00 0.00 66 1014.6
20260905214512 91 9 3.0 5.0 0.00 0.00 0.00 65 1014.7
20260905214010 91 56 2.0 4.0 0.00 0.00 0.00 65 1014.7
20260905213510 91 34 1.0 4.0 0.00 0.00 0.00 65 1014.7
20260905213016 91 78 2.0 4.0 0.00 0.00 0.00 64 1014.7
20260905212510 91 28 2.0 4.0 0.00 0.00 0.00 66 1014.6
20260905212009 91 17 1.0 5.0 0.00 0.00 0.00 66 1014.7
20260905211539 90 83 3.0 5.0 0.00 0.00 0.00 64 1014.7
20260905211013 90 66 2.0 5.0 0.00 0.00 0.00 66 1014.7
20260905210512 90 69 1.0 5.0 0.00 0.00 0.00 69 1014.7
20260905210017 90 20 2.0 5.0 0.00 0.00 0.00 68 1014.8
20260905205505 90 65 3.0 4.0 0.00 0.00 0.00 67 1014.9
20260905205008 90 65 1.0 4.0 0.00 0.00 0.00 70 1014.9
20260905204511 90 59 1.0 5.0 0.00 0.00 0.00 69 1014.9
20260905204007 90 30 2.0 5.0 0.00 0.00 0.00 69 1015.0
20260905203509 89 151 1.0 3.0 0.00 0.00 0.00 68 1014.9
20260905203016 89 76 1.0 3.0 0.00 0.00 0.00 69 1014.9
20260905202510 89 19 1.0 4.0 0.00 0.00 0.00 70 1015.0
20260905202010 89 78 1.0 5.0 0.00 0.00 0.00 70 1015.1
20260905201525 89 338 2.0 6.0 0.00 0.00 0.00 70 1015.0
20260905201011 90 53 3.0 6.0 0.00 0.00 0.00 69 1015.0
20260905200513 90 28 2.0 4.0 0.00 0.00 0.00 70 1015.0
20260905200020 90 60 1.0 3.0 0.00 0.00 0.00 69 1015.2
20260905195512 90 64 1.0 3.0 0.00 0.00 0.00 69 1015.3
20260905195005 90 352 0.0 3.0 0.00 0.00 0.00 71 1015.4
20260905194509 89 31 2.0 3.0 0.00 0.00 0.00 71 1015.5
20260905194007 89 81 0.0 3.0 0.00 0.00 0.00 71 1015.5
20260905193506 89 65 1.0 3.0 0.00 0.00 0.00 70 1015.5
20260905193014 89 351 0.0 2.0 0.00 0.00 0.00 71 1015.6
20260905192512 89 57 1.0 2.0 0.00 0.00 0.00 72 1015.6
20260905192009 88 5 1.0 3.0 0.00 0.00 0.00 72 1015.7
20260905191520 88 54 0.0 6.0 0.00 0.00 0.00 71 1015.5
20260905191012 88 53 2.0 6.0 0.00 0.00 0.00 70 1015.5
20260905190511 88 76 1.0 3.0 0.00 0.00 0.00 71 1015.6
20260905190004 88 25 1.0 3.0 0.00 0.00 0.00 72 1015.7
20260905185505 88 11 0.0 2.0 0.00 0.00 0.00 72 1015.8
20260905185006 88 20 1.0 3.0 0.00 0.00 0.00 72 1015.9
20260905184509 88 13 1.0 3.0 0.00 0.00 0.00 72 1015.9
20260905184004 88 34 1.0 3.0 0.00 0.00 0.00 71 1015.9
20260905183507 88 55 1.0 4.0 0.00 0.00 0.00 71 1016.1
20260905183020 88 120 2.0 4.0 0.00 0.00 0.00 72 1016.0
20260905182508 88 38 1.0 2.0 0.00 0.00 0.00 72 1016.0
20260905182012 88 22 1.0 3.0 0.00 0.00 0.00 72 1016.1
20260905181517 88 67 2.0 3.0 0.00 0.00 0.00 72 1015.9
20260905181014 88 78 1.0 3.0 0.00 0.00 0.00 72 1015.9
20260905180517 88 9 1.0 4.0 0.00 0.00 0.00 73 1015.9
20260905180024 87 57 2.0 4.0 0.00 0.00 0.00 73 1016.0
20260905175518 87 45 1.0 3.0 0.00 0.00 0.00 73 1016.1
20260905175013 87 55 1.0 4.0 0.00 0.00 0.00 73 1015.9
20260905174505 87 50 2.0 4.0 0.00 0.00 0.00 73 1015.9
20260905174007 87 28 1.0 5.0 0.00 0.00 0.00 73 1015.9
20260905173507 87 72 2.0 5.0 0.00 0.00 0.00 73 1015.8
20260905173027 87 56 2.0 4.0 0.00 0.00 0.00 74 1015.8
20260905172506 87 54 1.0 4.0 0.00 0.00 0.00 75 1016.0
20260905172011 87 78 1.0 7.0 0.00 0.00 0.00 74 1016.0
20260905171514 87 67 3.0 7.0 0.00 0.00 0.00 74 1016.1
20260905171011 87 67 2.0 4.0 0.00 0.00 0.00 75 1016.1
20260905170515 87 80 1.0 3.0 0.00 0.00 0.00 75 1016.2
20260905170021 87 52 0.0 4.0 0.00 0.00 0.00 75 1016.2
20260905165515 87 26 1.0 4.0 0.00 0.00 0.00 76 1016.2
20260905165017 87 17 2.0 4.0 0.00 0.00 0.00 76 1016.2
20260905164527 87 66 1.0 4.0 0.00 0.00 0.00 76 1016.4
20260905164015 87 56 2.0 4.0 0.00 0.00 0.00 75 1016.2
20260905163506 87 59 2.0 4.0 0.00 0.00 0.00 76 1016.3
20260905163005 87 29 2.0 3.0 0.00 0.00 0.00 76 1016.4
20260905162508 87 88 1.0 3.0 0.00 0.00 0.00 77 1016.4
20260905162008 87 44 1.0 5.0 0.00 0.00 0.00 78 1016.3
20260905161515 86 55 1.0 5.0 0.00 0.00 0.00 78 1016.3
20260905161013 86 76 2.0 7.0 0.00 0.00 0.00 77 1016.3
20260905160511 86 32 2.0 7.0 0.00 0.00 0.00 76 1016.3
20260905160021 86 44 1.0 3.0 0.00 0.00 0.00 78 1016.2
20260905155513 86 36 1.0 4.0 0.00 0.00 0.00 77 1016.2
20260905155016 86 16 2.0 4.0 0.00 0.00 0.00 76 1016.1
20260905154526 86 90 2.0 3.0 0.00 0.00 0.00 77 1016.0
20260905154020 86 59 1.0 2.0 0.00 0.00 0.00 77 1016.1
20260905153519 85 37 1.0 3.0 0.00 0.00 0.00 76 1015.9